Location: Betpouey
(42.8833°N, 0.0333°E)
Time: 05:06:31
(UTC+00:00)

Meteor 2-13 Rocket - Pass Details

Date: 02 July 2021
Orbit: 935 x 958 km, 82.5° (Epoch: 26 July)

Event Time Altitude Azimuth Distance (km) Brightness Sun altitude
Exits shadow 22:47:48 41° 142° (SE) 1,358 4.8 -21.8°
Maximum altitude 22:49:35 55° 92° (E) 1,145 4.7 -22.0°
Drops below altitude 10° 22:55:34 10° 17° (NNE) 2,693 7.6 -22.3°
Sets 22:58:06 0° 13° (NNE) 3,640 8.5 -22.4°
